Location: Las Brisas Observatory
(38.8767°N, 105.2775°W)
Time: 23:48:33
(UTC-06:00)

Hubble Space Telescope - Visible Passes

Search period start: 24 March 2019 00:00
Search period end: 03 April 2019 00:00
Orbit: 537 x 540 km, 28.5° (Epoch: 24 March)

Date Brightness Start Highest point End Pass type
(mag) Time Alt. Az. Time Alt. Az. Time Alt. Az.
24 Mar 2.9 20:37:16 10° S 20:38:49 12° SSE 20:38:49 12° SSE visible
25 Mar 2.8 20:26:11 10° SSW 20:28:23 14° SSE 20:29:10 13° SSE visible
26 Mar 2.7 20:15:17 10° SSW 20:17:46 16° S 20:19:27 13° SE visible
27 Mar 2.7 20:04:29 10° SSW 20:07:11 17° S 20:09:41 11° SE visible
27 Mar 3.5 21:44:52 10° SW 21:45:02 11° SW 21:45:02 11° SW visible
28 Mar 2.6 19:53:45 10° SW 19:56:36 18° S 19:59:25 10° SE visible
28 Mar 3.3 21:34:23 10° SW 21:35:13 13° SW 21:35:13 13° SW visible
29 Mar 2.6 19:43:05 10° SW 19:46:00 19° S 19:48:55 10° SE visible
29 Mar 3.1 21:23:58 10° SW 21:25:23 15° SSW 21:25:23 15° SSW visible
30 Mar 3.0 21:13:37 10° SW 21:15:32 15° SSW 21:15:32 15° SSW visible
31 Mar 3.0 21:03:24 10° SW 21:05:21 13° SSW 21:05:41 13° S visible
01 Apr 3.2 20:53:25 10° SW 20:54:45 11° SSW 20:55:50 10° S visible
